Time,TemperatureF,DewpointF,PressureIn,WindDirection,WindDirectionDegrees,WindSpeedMPH,WindSpeedGustMPH,Humidity,HourlyPrecipIn,Conditions,Clouds,dailyrainin,SoftwareType,DateUTC
2013-10-18 00:00:00,53.0,52.0,29.64,NW,317,0.0,1.0,95,0.23,,,0.26,weatherlink.com 1.10,2013-10-18 04:00:00,
2013-10-18 00:15:00,53.0,52.0,29.65,NW,325,0.0,1.0,96,0.26,,,0.29,weatherlink.com 1.10,2013-10-18 04:15:00,
2013-10-18 00:30:00,52.9,52.0,29.65,WNW,283,0.0,0.0,96,0.23,,,0.37,weatherlink.com 1.10,2013-10-18 04:30:00,
2013-10-18 00:45:00,53.0,52.0,29.64,WNW,283,0.0,0.0,97,0.29,,,0.12,weatherlink.com 1.10,2013-10-18 04:45:00,
2013-10-18 01:00:00,52.9,52.0,29.63,NE,44,2.0,3.0,97,0.35,,,0.22,weatherlink.com 1.10,2013-10-18 05:00:00,
2013-10-18 01:15:00,53.2,52.0,29.62,North,3,4.0,4.0,97,0.49,,,0.38,weatherlink.com 1.10,2013-10-18 05:15:00,
2013-10-18 01:30:00,53.3,53.0,29.62,NNW,342,2.0,3.0,97,0.65,,,0.62,weatherlink.com 1.10,2013-10-18 05:30:00,
2013-10-18 01:45:00,52.9,52.0,29.59,NNW,348,0.0,4.0,97,0.58,,,0.70,weatherlink.com 1.10,2013-10-18 05:45:00,
2013-10-18 02:00:00,52.6,52.0,29.60,West,277,0.0,1.0,98,0.53,,,0.75,weatherlink.com 1.10,2013-10-18 06:00:00,
2013-10-18 02:15:00,52.5,52.0,29.59,NW,324,1.0,2.0,98,0.51,,,0.89,weatherlink.com 1.10,2013-10-18 06:15:00,
2013-10-18 02:30:00,52.6,52.0,29.61,NNW,327,0.0,5.0,98,0.36,,,0.98,weatherlink.com 1.10,2013-10-18 06:30:00,
2013-10-18 02:45:00,53.1,53.0,29.61,NW,311,1.0,3.0,98,0.35,,,1.06,weatherlink.com 1.10,2013-10-18 06:45:00,
2013-10-18 03:00:00,53.3,53.0,29.61,WSW,246,1.0,5.0,98,0.35,,,1.11,weatherlink.com 1.10,2013-10-18 07:00:00,
2013-10-18 03:15:00,52.8,52.0,29.61,NNW,338,2.0,5.0,98,0.25,,,1.15,weatherlink.com 1.10,2013-10-18 07:15:00,
2013-10-18 03:30:00,52.6,52.0,29.61,NNW,329,0.0,6.0,98,0.18,,,1.16,weatherlink.com 1.10,2013-10-18 07:30:00,
2013-10-18 03:46:00,52.6,52.0,29.61,NW,323,0.0,2.0,98,0.11,,,1.17,weatherlink.com 1.10,2013-10-18 07:46:00,
2013-10-18 04:00:00,52.7,52.0,29.59,NNE,32,4.0,6.0,98,0.06,,,1.17,weatherlink.com 1.10,2013-10-18 08:00:00,
2013-10-18 04:15:00,52.8,52.0,29.59,NNW,347,0.0,4.0,98,0.02,,,1.17,weatherlink.com 1.10,2013-10-18 08:15:00,
2013-10-18 04:30:00,52.9,52.0,29.61,West,275,0.0,2.0,98,0.01,,,1.17,weatherlink.com 1.10,2013-10-18 08:30:00,
2013-10-18 04:45:00,52.8,52.0,29.61,West,273,0.0,1.0,98,0.00,,,1.17,weatherlink.com 1.10,2013-10-18 08:45:00,
2013-10-18 05:00:00,52.8,52.0,29.61,West,273,0.0,0.0,98,0.01,,,1.18,weatherlink.com 1.10,2013-10-18 09:00:00,
2013-10-18 05:15:00,52.7,52.0,29.62,West,273,0.0,0.0,98,0.01,,,1.18,weatherlink.com 1.10,2013-10-18 09:15:00,
2013-10-18 05:30:00,52.8,52.0,29.63,West,263,0.0,0.0,98,0.01,,,1.18,weatherlink.com 1.10,2013-10-18 09:30:00,
2013-10-18 05:45:00,52.7,52.0,29.64,West,263,0.0,0.0,98,0.00,,,1.18,weatherlink.com 1.10,2013-10-18 09:45:00,
2013-10-18 06:00:00,52.7,53.0,29.64,West,262,0.0,0.0,99,0.00,,,1.18,weatherlink.com 1.10,2013-10-18 10:00:00,
2013-10-18 06:15:00,52.8,53.0,29.65,WSW,247,0.0,0.0,99,0.00,,,1.18,weatherlink.com 1.10,2013-10-18 10:15:00,
2013-10-18 06:30:00,52.6,52.0,29.64,WSW,248,0.0,0.0,99,0.00,,,1.18,weatherlink.com 1.10,2013-10-18 10:30:00,
2013-10-18 06:45:00,52.1,52.0,29.64,WSW,247,0.0,0.0,98,0.00,,,1.18,weatherlink.com 1.10,2013-10-18 10:45:00,
2013-10-18 07:00:00,51.3,51.0,29.64,WSW,247,0.0,0.0,98,0.00,,,1.18,weatherlink.com 1.10,2013-10-18 11:00:00,
2013-10-18 07:15:00,51.4,51.0,29.65,WSW,247,0.0,0.0,99,0.00,,,1.18,weatherlink.com 1.10,2013-10-18 11:15:00,
2013-10-18 07:31:00,51.0,51.0,29.66,SW,226,0.0,0.0,99,0.00,,,1.18,weatherlink.com 1.10,2013-10-18 11:31:00,
2013-10-18 07:46:00,50.9,51.0,29.66,SW,225,0.0,0.0,99,0.00,,,1.18,weatherlink.com 1.10,2013-10-18 11:46:00,
2013-10-18 08:01:00,50.6,50.0,29.67,SW,224,0.0,0.0,99,0.00,,,1.18,weatherlink.com 1.10,2013-10-18 12:01:00,
2013-10-18 08:16:00,51.7,52.0,29.68,NW,307,0.0,1.0,100,0.00,,,1.18,weatherlink.com 1.10,2013-10-18 12:16:00,
2013-10-18 08:31:00,52.2,52.0,29.68,NW,307,0.0,1.0,99,0.00,,,1.18,weatherlink.com 1.10,2013-10-18 12:31:00,
2013-10-18 08:46:00,52.4,52.0,29.69,NW,306,0.0,0.0,99,0.00,,,1.18,weatherlink.com 1.10,2013-10-18 12:46:00,
2013-10-18 09:01:00,52.8,53.0,29.69,NW,307,0.0,0.0,99,0.00,,,1.18,weatherlink.com 1.10,2013-10-18 13:01:00,
2013-10-18 09:16:00,53.6,53.0,29.69,SSW,212,2.0,3.0,99,0.00,,,1.18,weatherlink.com 1.10,2013-10-18 13:16:00,
2013-10-18 09:31:00,54.2,53.0,29.70,SW,217,0.0,3.0,97,0.00,,,1.18,weatherlink.com 1.10,2013-10-18 13:31:00,
2013-10-18 09:46:00,55.4,54.0,29.70,SW,227,0.0,4.0,94,0.00,,,1.18,weatherlink.com 1.10,2013-10-18 13:46:00,
2013-10-18 10:01:00,56.2,54.0,29.70,SW,214,1.0,6.0,92,0.00,,,1.18,weatherlink.com 1.10,2013-10-18 14:01:00,
2013-10-18 10:16:00,57.5,54.0,29.70,SSW,198,2.0,7.0,87,0.00,,,1.18,weatherlink.com 1.10,2013-10-18 14:16:00,
2013-10-18 10:31:00,58.1,54.0,29.70,SW,224,2.0,5.0,85,0.00,,,1.18,weatherlink.com 1.10,2013-10-18 14:31:00,
2013-10-18 10:46:00,59.6,54.0,29.70,WNW,291,1.0,5.0,82,0.00,,,1.18,weatherlink.com 1.10,2013-10-18 14:46:00,
2013-10-18 11:01:00,60.2,54.0,29.71,West,275,0.0,6.0,79,0.00,,,1.18,weatherlink.com 1.10,2013-10-18 15:01:00,
2013-10-18 11:16:00,61.0,52.0,29.70,WNW,295,2.0,8.0,72,0.00,,,1.18,weatherlink.com 1.10,2013-10-18 15:16:00,
2013-10-18 11:31:00,61.8,53.0,29.71,NW,312,2.0,7.0,73,0.00,,,1.18,weatherlink.com 1.10,2013-10-18 15:31:00,
2013-10-18 11:46:00,62.2,52.0,29.71,West,271,2.0,9.0,70,0.00,,,1.18,weatherlink.com 1.10,2013-10-18 15:46:00,
2013-10-18 12:01:00,62.1,51.0,29.71,SW,215,7.0,12.0,68,0.00,,,1.18,weatherlink.com 1.10,2013-10-18 16:01:00,
2013-10-18 12:16:00,62.1,51.0,29.72,West,273,2.0,11.0,67,0.00,,,1.18,weatherlink.com 1.10,2013-10-18 16:16:00,
2013-10-18 12:31:00,63.2,50.0,29.72,SSW,207,0.0,15.0,63,0.00,,,1.18,weatherlink.com 1.10,2013-10-18 16:31:00,
2013-10-18 12:46:00,62.6,49.0,29.72,SSW,199,3.0,13.0,62,0.00,,,1.18,weatherlink.com 1.10,2013-10-18 16:46:00,
2013-10-18 13:01:00,63.1,50.0,29.72,West,266,2.0,7.0,62,0.00,,,1.18,weatherlink.com 1.10,2013-10-18 17:01:00,
2013-10-18 13:16:00,63.0,49.0,29.72,SW,224,3.0,8.0,60,0.00,,,1.18,weatherlink.com 1.10,2013-10-18 17:16:00,
2013-10-18 13:32:00,62.4,47.0,29.73,West,273,2.0,9.0,57,0.00,,,1.18,weatherlink.com 1.10,2013-10-18 17:32:00,
2013-10-18 13:47:00,61.6,47.0,29.73,West,279,0.0,5.0,59,0.00,,,1.18,weatherlink.com 1.10,2013-10-18 17:47:00,
2013-10-18 14:02:00,61.5,48.0,29.73,West,279,3.0,5.0,61,0.00,,,1.18,weatherlink.com 1.10,2013-10-18 18:02:00,
2013-10-18 14:17:00,61.3,48.0,29.73,West,269,1.0,4.0,61,0.00,,,1.18,weatherlink.com 1.10,2013-10-18 18:17:00,
2013-10-18 14:32:00,61.0,48.0,29.74,WNW,296,5.0,9.0,63,0.00,,,1.18,weatherlink.com 1.10,2013-10-18 18:32:00,
2013-10-18 14:47:00,60.2,49.0,29.75,SW,225,0.0,9.0,67,0.00,,,1.18,weatherlink.com 1.10,2013-10-18 18:47:00,
2013-10-18 15:02:00,60.4,51.0,29.74,SW,223,0.0,8.0,70,0.00,,,1.18,weatherlink.com 1.10,2013-10-18 19:02:00,
2013-10-18 15:17:00,60.5,49.0,29.74,South,184,3.0,7.0,67,0.00,,,1.18,weatherlink.com 1.10,2013-10-18 19:17:00,
2013-10-18 15:32:00,60.9,49.0,29.74,West,279,0.0,9.0,64,0.00,,,1.18,weatherlink.com 1.10,2013-10-18 19:32:00,
2013-10-18 15:47:00,62.1,48.0,29.75,SW,215,1.0,7.0,60,0.00,,,1.18,weatherlink.com 1.10,2013-10-18 19:47:00,
2013-10-18 16:02:00,62.1,48.0,29.75,SW,224,2.0,5.0,60,0.00,,,1.18,weatherlink.com 1.10,2013-10-18 20:02:00,
2013-10-18 16:17:00,62.0,48.0,29.74,SW,215,1.0,7.0,60,0.00,,,1.18,weatherlink.com 1.10,2013-10-18 20:17:00,
2013-10-18 16:32:00,62.6,49.0,29.75,SW,214,1.0,8.0,61,0.00,,,1.18,weatherlink.com 1.10,2013-10-18 20:32:00,
2013-10-18 16:47:00,62.2,49.0,29.75,SSW,207,5.0,9.0,62,0.00,,,1.18,weatherlink.com 1.10,2013-10-18 20:47:00,
2013-10-18 17:02:00,61.1,48.0,29.75,WSW,238,6.0,10.0,63,0.00,,,1.18,weatherlink.com 1.10,2013-10-18 21:02:00,
2013-10-18 17:17:00,60.8,48.0,29.75,South,173,2.0,11.0,63,0.00,,,1.18,weatherlink.com 1.10,2013-10-18 21:17:00,
2013-10-18 17:32:00,59.5,46.0,29.76,SW,225,2.0,9.0,62,0.00,,,1.18,weatherlink.com 1.10,2013-10-18 21:32:00,
2013-10-18 17:47:00,58.6,45.0,29.76,SSW,196,7.0,11.0,60,0.00,,,1.18,weatherlink.com 1.10,2013-10-18 21:47:00,
2013-10-18 18:02:00,57.8,42.0,29.78,WSW,241,2.0,10.0,56,0.00,,,1.18,weatherlink.com 1.10,2013-10-18 22:02:00,
2013-10-18 18:17:00,56.9,41.0,29.78,WNW,284,3.0,13.0,55,0.00,,,1.18,weatherlink.com 1.10,2013-10-18 22:17:00,
2013-10-18 18:32:00,56.4,41.0,29.79,WNW,289,3.0,10.0,56,0.00,,,1.18,weatherlink.com 1.10,2013-10-18 22:32:00,
2013-10-18 18:47:00,55.9,41.0,29.79,West,270,2.0,13.0,57,0.00,,,1.18,weatherlink.com 1.10,2013-10-18 22:47:00,
2013-10-18 19:02:00,55.5,41.0,29.80,West,266,1.0,12.0,58,0.00,,,1.18,weatherlink.com 1.10,2013-10-18 23:02:00,
2013-10-18 19:17:00,55.1,41.0,29.81,WSW,248,0.0,7.0,59,0.00,,,1.18,weatherlink.com 1.10,2013-10-18 23:17:00,
2013-10-18 19:33:00,54.7,41.0,29.82,West,273,0.0,5.0,60,0.00,,,1.18,weatherlink.com 1.10,2013-10-18 23:33:00,
2013-10-18 19:47:00,53.8,41.0,29.83,SW,227,0.0,4.0,62,0.00,,,1.18,weatherlink.com 1.10,2013-10-18 23:47:00,
2013-10-18 20:02:00,52.2,41.0,29.83,SSW,210,0.0,1.0,65,0.00,,,1.18,weatherlink.com 1.10,2013-10-19 00:02:00,
2013-10-18 20:17:00,50.2,41.0,29.84,SSW,210,0.0,1.0,70,0.00,,,1.18,weatherlink.com 1.10,2013-10-19 00:17:00,
2013-10-18 20:32:00,50.0,41.0,29.84,WSW,250,1.0,2.0,70,0.00,,,1.18,weatherlink.com 1.10,2013-10-19 00:32:00,
2013-10-18 20:47:00,49.8,40.0,29.85,West,264,0.0,0.0,69,0.00,,,1.18,weatherlink.com 1.10,2013-10-19 00:47:00,
2013-10-18 21:02:00,48.3,40.0,29.86,West,266,0.0,0.0,73,0.00,,,1.18,weatherlink.com 1.10,2013-10-19 01:02:00,
2013-10-18 21:17:00,47.9,40.0,29.86,SSW,207,0.0,3.0,75,0.00,,,1.18,weatherlink.com 1.10,2013-10-19 01:17:00,
2013-10-18 21:32:00,48.6,40.0,29.86,SW,214,0.0,4.0,73,0.00,,,1.18,weatherlink.com 1.10,2013-10-19 01:32:00,
2013-10-18 21:47:00,48.1,40.0,29.86,WSW,257,0.0,0.0,74,0.00,,,1.18,weatherlink.com 1.10,2013-10-19 01:47:00,
2013-10-18 22:03:00,46.4,40.0,29.86,WNW,283,1.0,1.0,77,0.00,,,1.18,weatherlink.com 1.10,2013-10-19 02:03:00,
2013-10-18 22:18:00,45.9,40.0,29.87,North,350,0.0,2.0,79,0.00,,,1.18,weatherlink.com 1.10,2013-10-19 02:18:00,
2013-10-18 22:33:00,45.1,39.0,29.87,NW,323,0.0,2.0,80,0.00,,,1.18,weatherlink.com 1.10,2013-10-19 02:33:00,
2013-10-18 22:48:00,46.1,40.0,29.87,NNW,334,0.0,1.0,78,0.00,,,1.18,weatherlink.com 1.10,2013-10-19 02:48:00,
2013-10-18 23:03:00,45.6,39.0,29.87,NNW,334,0.0,0.0,79,0.00,,,1.18,weatherlink.com 1.10,2013-10-19 03:03:00,
2013-10-18 23:18:00,44.7,40.0,29.87,NNW,334,0.0,0.0,82,0.00,,,1.18,weatherlink.com 1.10,2013-10-19 03:18:00,
2013-10-18 23:33:00,44.5,39.0,29.88,NNW,334,0.0,1.0,82,0.00,,,1.18,weatherlink.com 1.10,2013-10-19 03:33:00,
2013-10-18 23:48:00,44.1,40.0,29.88,NNW,333,0.0,1.0,84,0.00,,,1.18,weatherlink.com 1.10,2013-10-19 03:48:00,